{"data":{"norad_id":43022,"epoch":"2026-05-25T04:20:30.873696Z","epoch_age_seconds":69630,"freshness":"FRESH","line1":"1 43022U 17074A   26145.18091289  .00013373  00000+0  31803-3 0  9990","line2":"2 43022  97.4832 254.1948 0002517 274.1611  85.9348 15.41772474470725","mean_motion":15.41772474,"eccentricity":0.0002517,"inclination_deg":97.4832,"raan_deg":254.1948,"arg_perigee_deg":274.1611,"mean_anomaly_deg":85.9348,"bstar":0.00031803,"rev_number":47072,"period_min":93.398995265757,"perigee_km":439.16171233566,"apogee_km":442.59440451606997,"semimajor_km":6819.0150584259,"source":"CELESTRAK","updated_at":"2026-05-25T13:37:55.755646Z"}}